Location: *
(43.9900°N, 3.4811°E)
Time: 16:50:11
(UTC+00:00)

SJ-6B - Pass Details

Date: 25 August 2019
Orbit: 509 x 583 km, 97.6° (Epoch: 15 October)

Event Time Altitude Azimuth Distance (km) Brightness Sun altitude
Rises 19:04:56 0° 155° (SSE) 2,716 5.9 -6.0°
Reaches altitude 10° 19:07:04 10° 151° (SSE) 1,839 5.0 -6.3°
Maximum altitude 19:10:58 55° 73° (ENE) 683 3.0 -7.0°
Drops below altitude 10° 19:14:58 10° 356° (N) 1,891 5.9 -7.6°
Sets 19:17:11 0° 352° (N) 2,802 6.9 -8.0°
